Time,TemperatureF,DewpointF,PressureIn,WindDirection,WindDirectionDegrees,WindSpeedMPH,WindSpeedGustMPH,Humidity,HourlyPrecipIn,Conditions,Clouds,dailyrainin,SolarRadiationWatts/m^2,SoftwareType,DateUTC
2013-04-26 00:03:00,43.5,34.4,29.94,SE,142,11.0,15.0,70,0.00,,SKC,0.00,0.00,VWS V14.00,2013-04-26 05:03:00,
2013-04-26 00:08:00,43.6,34.5,29.93,SE,136,12.0,19.0,70,0.00,,SKC,0.00,0.00,VWS V14.00,2013-04-26 05:08:00,
2013-04-26 00:13:00,43.7,34.6,29.93,South,180,11.0,16.0,70,0.00,,SKC,0.00,0.00,VWS V14.00,2013-04-26 05:13:00,
2013-04-26 00:18:00,43.7,34.2,29.93,SSE,161,10.0,13.0,69,0.00,,SKC,0.00,0.00,VWS V14.00,2013-04-26 05:18:00,
2013-04-26 00:23:00,43.7,34.2,29.92,SSW,203,10.0,15.0,69,0.00,,SKC,0.00,0.00,VWS V14.00,2013-04-26 05:23:00,
2013-04-26 00:28:00,43.8,34.3,29.92,South,171,14.0,15.0,69,0.00,,SKC,0.00,0.00,VWS V14.00,2013-04-26 05:28:00,
2013-04-26 00:33:00,44.0,34.9,29.92,South,180,11.0,14.0,70,0.00,,SKC,0.00,0.00,VWS V14.00,2013-04-26 05:33:00,
2013-04-26 00:38:00,44.1,35.0,29.92,SSE,164,12.0,17.0,70,0.00,,SKC,0.00,0.00,VWS V14.00,2013-04-26 05:38:00,
2013-04-26 00:43:00,44.2,35.0,29.92,South,174,15.0,18.0,70,0.00,,SKC,0.00,0.00,VWS V14.00,2013-04-26 05:43:00,
2013-04-26 00:48:00,44.6,35.1,29.91,South,174,14.0,19.0,69,0.00,,SKC,0.00,0.00,VWS V14.00,2013-04-26 05:48:00,
2013-04-26 00:53:00,44.7,35.2,29.92,SSW,209,6.0,18.0,69,0.00,,SKC,0.00,0.00,VWS V14.00,2013-04-26 05:53:00,
2013-04-26 00:58:00,45.0,35.5,29.91,SSW,193,11.0,19.0,69,0.00,,SKC,0.00,0.00,VWS V14.00,2013-04-26 05:58:00,
2013-04-26 01:03:00,45.2,35.7,29.91,SSW,203,13.0,20.0,69,0.00,,SKC,0.00,0.00,VWS V14.00,2013-04-26 06:03:00,
2013-04-26 01:08:00,45.1,35.5,29.91,SSE,151,6.0,18.0,69,0.00,,SKC,0.00,0.00,VWS V14.00,2013-04-26 06:08:00,
2013-04-26 01:13:00,44.8,35.6,29.91,SE,129,9.0,10.0,70,0.00,,SKC,0.00,0.00,VWS V14.00,2013-04-26 06:13:00,
2013-04-26 01:18:00,44.5,35.7,29.91,SSE,155,13.0,13.0,71,0.00,,SKC,0.00,0.00,VWS V14.00,2013-04-26 06:18:00,
2013-04-26 01:23:00,44.3,35.5,29.91,SSE,158,7.0,9.0,71,0.00,,SKC,0.00,0.00,VWS V14.00,2013-04-26 06:23:00,
2013-04-26 01:28:00,44.2,35.8,29.91,SE,138,6.0,9.0,72,0.00,,SKC,0.00,0.00,VWS V14.00,2013-04-26 06:28:00,
2013-04-26 01:33:00,44.2,35.8,29.91,SE,144,7.0,9.0,72,0.00,,SKC,0.00,0.00,VWS V14.00,2013-04-26 06:33:00,
2013-04-26 01:39:00,44.2,36.1,29.91,SSE,157,7.0,7.0,73,0.00,,SKC,0.00,0.00,VWS V14.00,2013-04-26 06:39:00,
2013-04-26 01:44:00,44.3,36.2,29.91,South,170,5.0,7.0,73,0.00,,SKC,0.00,0.00,VWS V14.00,2013-04-26 06:44:00,
2013-04-26 01:49:00,44.3,36.2,29.90,South,171,5.0,12.0,73,0.00,,SKC,0.00,0.00,VWS V14.00,2013-04-26 06:49:00,
2013-04-26 01:54:00,44.4,36.3,29.90,SE,137,9.0,11.0,73,0.00,,SKC,0.00,0.00,VWS V14.00,2013-04-26 06:54:00,
2013-04-26 01:59:00,44.4,36.3,29.90,South,188,6.0,6.0,73,0.00,,SKC,0.00,0.00,VWS V14.00,2013-04-26 06:59:00,
2013-04-26 02:04:00,44.3,36.2,29.90,South,173,3.0,3.0,73,0.00,,SKC,0.00,0.00,VWS V14.00,2013-04-26 07:04:00,
2013-04-26 02:09:00,44.2,36.5,29.91,ESE,112,0.0,0.0,74,0.00,,SKC,0.00,0.00,VWS V14.00,2013-04-26 07:09:00,
2013-04-26 02:14:00,43.9,35.8,29.91,ESE,120,2.0,3.0,73,0.00,,SKC,0.00,0.00,VWS V14.00,2013-04-26 07:14:00,
2013-04-26 02:19:00,43.6,35.9,29.91,East,80,2.0,2.0,74,0.00,,SKC,0.00,0.00,VWS V14.00,2013-04-26 07:19:00,
2013-04-26 02:24:00,43.2,35.8,29.90,SE,136,4.0,4.0,75,0.00,,SKC,0.00,0.00,VWS V14.00,2013-04-26 07:24:00,
2013-04-26 02:29:00,43.1,36.1,29.90,East,91,3.0,4.0,76,0.00,,SKC,0.00,0.00,VWS V14.00,2013-04-26 07:29:00,
2013-04-26 02:34:00,43.1,35.7,29.91,East,90,2.0,3.0,75,0.00,,SKC,0.00,0.00,VWS V14.00,2013-04-26 07:34:00,
2013-04-26 02:39:00,42.9,35.5,29.91,East,90,0.0,1.0,75,0.00,,SKC,0.00,0.00,VWS V14.00,2013-04-26 07:39:00,
2013-04-26 02:44:00,42.3,35.0,29.90,ESE,117,2.0,4.0,75,0.00,,SKC,0.00,0.00,VWS V14.00,2013-04-26 07:44:00,
2013-04-26 02:49:00,41.9,35.2,29.90,SSE,167,5.0,5.0,77,0.00,,SKC,0.00,0.00,VWS V14.00,2013-04-26 07:49:00,
2013-04-26 02:54:00,41.9,35.2,29.90,SSE,168,3.0,3.0,77,0.00,,SKC,0.00,0.00,VWS V14.00,2013-04-26 07:54:00,
2013-04-26 02:59:00,41.8,35.1,29.90,SSE,161,5.0,5.0,77,0.00,,SKC,0.00,0.00,VWS V14.00,2013-04-26 07:59:00,
2013-04-26 03:04:00,41.8,35.5,29.89,SSE,157,4.0,8.0,78,0.00,,SKC,0.00,0.00,VWS V14.00,2013-04-26 08:04:00,
2013-04-26 03:09:00,41.8,35.5,29.89,ESE,111,2.0,5.0,78,0.00,,SKC,0.00,0.00,VWS V14.00,2013-04-26 08:09:00,
2013-04-26 03:14:00,41.7,35.4,29.89,SE,146,6.0,9.0,78,0.00,,SKC,0.00,0.00,VWS V14.00,2013-04-26 08:14:00,
2013-04-26 03:19:00,41.6,35.3,29.89,SE,142,6.0,6.0,78,0.00,,SKC,0.00,0.00,VWS V14.00,2013-04-26 08:19:00,
2013-04-26 03:24:00,41.5,35.2,29.89,SE,146,5.0,10.0,78,0.00,,SKC,0.00,0.00,VWS V14.00,2013-04-26 08:24:00,
2013-04-26 03:29:00,41.3,35.3,29.88,SSE,167,4.0,6.0,79,0.00,,SKC,0.00,0.00,VWS V14.00,2013-04-26 08:29:00,
2013-04-26 03:34:00,41.1,35.4,29.88,SSE,163,4.0,8.0,80,0.00,,SKC,0.00,0.00,VWS V14.00,2013-04-26 08:34:00,
2013-04-26 03:39:00,41.0,36.8,29.87,South,181,4.0,6.0,85,0.00,,SKC,0.00,0.00,VWS V14.00,2013-04-26 08:39:00,
2013-04-26 03:44:00,40.9,35.5,29.88,SSE,160,5.0,5.0,81,0.00,,SKC,0.00,0.00,VWS V14.00,2013-04-26 08:44:00,
2013-04-26 03:49:00,40.9,35.5,29.87,SSE,159,5.0,6.0,81,0.00,,SKC,0.00,0.00,VWS V14.00,2013-04-26 08:49:00,
2013-04-26 03:54:00,40.9,35.8,29.87,SSW,201,5.0,6.0,82,0.00,,SKC,0.00,0.00,VWS V14.00,2013-04-26 08:54:00,
2013-04-26 03:59:00,41.0,35.9,29.87,SSE,164,5.0,6.0,82,0.00,,SKC,0.00,0.00,VWS V14.00,2013-04-26 08:59:00,
2013-04-26 04:04:00,41.1,36.0,29.86,South,186,5.0,7.0,82,0.00,,SKC,0.00,0.00,VWS V14.00,2013-04-26 09:04:00,
2013-04-26 04:09:00,41.2,36.1,29.87,South,176,6.0,6.0,82,0.00,,SKC,0.00,0.00,VWS V14.00,2013-04-26 09:09:00,
2013-04-26 04:14:00,41.3,36.2,29.87,South,173,5.0,6.0,82,0.00,,SKC,0.00,0.00,VWS V14.00,2013-04-26 09:14:00,
2013-04-26 04:19:00,41.3,36.2,29.86,South,183,3.0,5.0,82,0.00,,SKC,0.00,0.00,VWS V14.00,2013-04-26 09:19:00,
2013-04-26 04:24:00,41.3,36.2,29.86,South,169,3.0,5.0,82,0.00,,SKC,0.00,0.00,VWS V14.00,2013-04-26 09:24:00,
2013-04-26 04:29:00,41.3,36.5,29.86,South,183,3.0,7.0,83,0.00,,SKC,0.00,0.00,VWS V14.00,2013-04-26 09:29:00,
2013-04-26 04:34:00,41.4,36.9,29.86,SSE,165,4.0,5.0,84,0.00,,SKC,0.00,0.00,VWS V14.00,2013-04-26 09:34:00,
2013-04-26 04:39:00,41.5,37.0,29.86,South,182,6.0,7.0,84,0.00,,SKC,0.00,0.00,VWS V14.00,2013-04-26 09:39:00,
2013-04-26 04:44:00,41.6,36.8,29.86,South,180,3.0,7.0,83,0.00,,SKC,0.00,0.00,VWS V14.00,2013-04-26 09:44:00,
2013-04-26 04:49:00,41.8,37.0,29.86,South,175,4.0,5.0,83,0.00,,SKC,0.00,0.00,VWS V14.00,2013-04-26 09:49:00,
2013-04-26 04:54:00,41.8,37.0,29.86,SSW,196,4.0,6.0,83,0.00,,SKC,0.00,0.00,VWS V14.00,2013-04-26 09:54:00,
2013-04-26 04:59:00,41.7,36.9,29.86,South,180,6.0,7.0,83,0.00,,SKC,0.00,0.00,VWS V14.00,2013-04-26 09:59:00,
2013-04-26 05:04:00,41.7,36.9,29.85,South,190,5.0,6.0,83,0.00,,SKC,0.00,0.00,VWS V14.00,2013-04-26 10:04:00,
2013-04-26 05:10:00,41.6,37.1,29.86,South,187,4.0,5.0,84,0.00,,SKC,0.00,0.00,VWS V14.00,2013-04-26 10:10:00,
2013-04-26 05:15:00,41.5,37.0,29.86,SSW,192,5.0,6.0,84,0.00,,SKC,0.00,0.00,VWS V14.00,2013-04-26 10:15:00,
2013-04-26 05:20:00,41.4,36.9,29.86,South,180,6.0,6.0,84,0.00,,SKC,0.00,0.00,VWS V14.00,2013-04-26 10:20:00,
2013-04-26 05:25:00,41.4,36.9,29.86,South,184,3.0,4.0,84,0.00,,SKC,0.00,0.00,VWS V14.00,2013-04-26 10:25:00,
2013-04-26 05:30:00,41.3,36.8,29.86,South,184,5.0,5.0,84,0.00,,SKC,0.00,0.00,VWS V14.00,2013-04-26 10:30:00,
2013-04-26 05:35:00,41.1,36.6,29.86,South,184,4.0,5.0,84,0.00,,SKC,0.00,0.00,VWS V14.00,2013-04-26 10:35:00,
2013-04-26 05:40:00,41.0,36.8,29.86,South,177,3.0,4.0,85,0.00,,SKC,0.00,0.00,VWS V14.00,2013-04-26 10:40:00,
2013-04-26 05:45:00,40.9,36.8,29.86,South,188,3.0,4.0,85,0.00,,SKC,0.00,0.00,VWS V14.00,2013-04-26 10:45:00,
2013-04-26 05:50:00,40.9,36.8,29.86,South,182,4.0,4.0,85,0.00,,SKC,0.00,0.00,VWS V14.00,2013-04-26 10:50:00,
2013-04-26 05:55:00,40.7,36.5,29.86,South,184,3.0,4.0,85,0.00,,SKC,0.00,0.00,VWS V14.00,2013-04-26 10:55:00,
2013-04-26 06:00:00,40.6,36.5,29.86,South,184,4.0,4.0,85,0.00,,SKC,0.00,0.00,VWS V14.00,2013-04-26 11:00:00,
2013-04-26 06:05:00,40.5,36.3,29.86,South,184,2.0,4.0,85,0.00,,SKC,0.00,0.00,VWS V14.00,2013-04-26 11:05:00,
2013-04-26 06:10:00,40.3,36.2,29.86,South,188,4.0,4.0,85,0.00,,SKC,0.00,0.00,VWS V14.00,2013-04-26 11:10:00,
2013-04-26 06:15:00,40.1,36.3,29.86,South,188,4.0,5.0,86,0.00,,SKC,0.00,0.00,VWS V14.00,2013-04-26 11:15:00,
2013-04-26 06:20:00,39.9,36.1,29.86,South,188,3.0,4.0,86,0.00,,SKC,0.00,7.00,VWS V14.00,2013-04-26 11:20:00,
2013-04-26 06:25:00,39.8,36.0,29.87,South,188,2.0,4.0,86,0.00,,SKC,0.00,11.00,VWS V14.00,2013-04-26 11:25:00,
2013-04-26 06:30:00,39.7,35.9,29.87,SSW,196,4.0,5.0,86,0.00,,SKC,0.00,14.00,VWS V14.00,2013-04-26 11:30:00,
2013-04-26 06:35:00,39.5,36.0,29.87,SSW,196,2.0,4.0,87,0.00,,SKC,0.00,16.00,VWS V14.00,2013-04-26 11:35:00,
2013-04-26 06:40:00,39.4,35.9,29.87,SSW,196,4.0,4.0,87,0.00,,SKC,0.00,21.00,VWS V14.00,2013-04-26 11:40:00,
2013-04-26 06:45:00,39.3,35.8,29.87,SSW,196,3.0,3.0,87,0.00,,SKC,0.00,23.00,VWS V14.00,2013-04-26 11:45:00,
2013-04-26 06:50:00,39.2,35.7,29.87,SSW,196,3.0,4.0,87,0.00,,SKC,0.00,30.00,VWS V14.00,2013-04-26 11:50:00,
2013-04-26 06:55:00,39.2,35.7,29.88,South,187,3.0,5.0,87,0.00,,SKC,0.00,40.00,VWS V14.00,2013-04-26 11:55:00,
2013-04-26 07:00:00,39.2,36.0,29.88,South,187,3.0,5.0,88,0.00,,SKC,0.00,51.00,VWS V14.00,2013-04-26 12:00:00,
2013-04-26 07:05:00,39.3,36.0,29.88,South,187,4.0,4.0,88,0.00,,SKC,0.00,60.00,VWS V14.00,2013-04-26 12:05:00,
2013-04-26 07:10:00,39.5,36.2,29.88,South,189,2.0,4.0,88,0.00,,SKC,0.00,76.00,VWS V14.00,2013-04-26 12:10:00,
2013-04-26 07:15:00,39.7,36.7,29.88,SSW,204,3.0,5.0,89,0.00,,SKC,0.00,93.00,VWS V14.00,2013-04-26 12:15:00,
2013-04-26 07:20:00,40.0,37.0,29.88,SSW,204,2.0,6.0,89,0.00,,SKC,0.00,111.00,VWS V14.00,2013-04-26 12:20:00,
2013-04-26 07:25:00,40.3,37.3,29.88,SW,218,3.0,5.0,89,0.00,,SKC,0.00,125.00,VWS V14.00,2013-04-26 12:25:00,
2013-04-26 07:30:00,40.8,37.8,29.88,SSW,202,2.0,6.0,89,0.00,,SKC,0.00,144.00,VWS V14.00,2013-04-26 12:30:00,
2013-04-26 07:35:00,41.3,38.0,29.89,West,259,6.0,8.0,88,0.00,,SKC,0.00,163.00,VWS V14.00,2013-04-26 12:35:00,
2013-04-26 07:40:00,42.0,38.4,29.89,SW,233,5.0,9.0,87,0.00,,SKC,0.00,181.00,VWS V14.00,2013-04-26 12:40:00,
2013-04-26 07:45:00,42.7,38.8,29.89,WSW,239,4.0,9.0,86,0.00,,SKC,0.00,193.00,VWS V14.00,2013-04-26 12:45:00,
2013-04-26 07:50:00,43.3,39.1,29.89,WSW,252,6.0,7.0,85,0.00,,SKC,0.00,218.00,VWS V14.00,2013-04-26 12:50:00,
2013-04-26 07:55:00,44.0,39.5,29.89,WSW,254,7.0,7.0,84,0.00,,SKC,0.00,236.00,VWS V14.00,2013-04-26 12:55:00,
2013-04-26 08:00:00,44.7,39.9,29.90,West,272,5.0,11.0,83,0.00,,SKC,0.00,253.00,VWS V14.00,2013-04-26 13:00:00,
2013-04-26 08:05:00,45.4,39.9,29.90,West,273,10.0,10.0,81,0.00,,SKC,0.00,274.00,VWS V14.00,2013-04-26 13:05:00,
2013-04-26 08:10:00,46.0,39.9,29.90,West,273,4.0,7.0,79,0.00,,SKC,0.00,287.00,VWS V14.00,2013-04-26 13:10:00,
2013-04-26 08:15:00,46.5,39.7,29.90,WNW,299,4.0,7.0,77,0.00,,SKC,0.00,304.00,VWS V14.00,2013-04-26 13:15:00,
2013-04-26 08:20:00,46.9,40.1,29.90,West,265,7.0,7.0,77,0.00,,SKC,0.00,320.00,VWS V14.00,2013-04-26 13:20:00,
2013-04-26 08:26:00,47.1,39.6,29.90,West,279,6.0,7.0,75,0.00,,SKC,0.00,336.00,VWS V14.00,2013-04-26 13:26:00,
2013-04-26 08:31:00,47.4,39.5,29.90,WNW,296,6.0,7.0,74,0.00,,SKC,0.00,353.00,VWS V14.00,2013-04-26 13:31:00,
2013-04-26 08:36:00,47.6,39.7,29.90,West,279,7.0,9.0,74,0.00,,SKC,0.00,367.00,VWS V14.00,2013-04-26 13:36:00,
2013-04-26 08:41:00,47.8,39.6,29.90,WNW,292,7.0,10.0,73,0.00,,SKC,0.00,385.00,VWS V14.00,2013-04-26 13:41:00,
2013-04-26 08:46:00,48.1,39.9,29.90,WNW,292,4.0,10.0,73,0.00,,SKC,0.00,399.00,VWS V14.00,2013-04-26 13:46:00,
2013-04-26 08:51:00,48.5,40.2,29.91,North,5,0.0,7.0,73,0.00,,SKC,0.00,417.00,VWS V14.00,2013-04-26 13:51:00,
2013-04-26 08:56:00,49.0,40.4,29.91,NW,321,1.0,7.0,72,0.00,,SKC,0.00,429.00,VWS V14.00,2013-04-26 13:56:00,
2013-04-26 09:01:00,49.4,40.8,29.92,NW,319,3.0,5.0,72,0.00,,SKC,0.00,446.00,VWS V14.00,2013-04-26 14:01:00,
2013-04-26 09:06:00,49.7,40.7,29.92,NW,320,6.0,11.0,71,0.00,,SKC,0.00,462.00,VWS V14.00,2013-04-26 14:06:00,
2013-04-26 09:11:00,50.0,41.0,29.92,NNW,327,1.0,4.0,71,0.00,,SKC,0.00,478.00,VWS V14.00,2013-04-26 14:11:00,
2013-04-26 09:16:00,50.3,40.9,29.92,NW,325,2.0,6.0,70,0.00,,SKC,0.00,494.00,VWS V14.00,2013-04-26 14:16:00,
2013-04-26 09:21:00,50.5,41.1,29.92,NNE,17,1.0,6.0,70,0.00,,SKC,0.00,512.00,VWS V14.00,2013-04-26 14:21:00,
2013-04-26 09:26:00,50.7,41.3,29.92,NNW,333,1.0,4.0,70,0.00,,SKC,0.00,524.00,VWS V14.00,2013-04-26 14:26:00,
2013-04-26 09:31:00,50.9,41.5,29.92,NE,34,2.0,5.0,70,0.00,,SKC,0.00,540.00,VWS V14.00,2013-04-26 14:31:00,
2013-04-26 09:36:00,51.2,41.4,29.92,NNW,339,6.0,6.0,69,0.00,,SKC,0.00,554.00,VWS V14.00,2013-04-26 14:36:00,
2013-04-26 09:41:00,51.4,41.6,29.92,North,5,2.0,5.0,69,0.00,,SKC,0.00,568.00,VWS V14.00,2013-04-26 14:41:00,
2013-04-26 09:46:00,51.7,41.9,29.93,North,5,3.0,3.0,69,0.00,,SKC,0.00,578.00,VWS V14.00,2013-04-26 14:46:00,
2013-04-26 09:51:00,52.0,41.8,29.93,North,5,4.0,4.0,68,0.00,,SKC,0.00,596.00,VWS V14.00,2013-04-26 14:51:00,
2013-04-26 09:56:00,52.0,41.8,29.94,NNE,17,3.0,5.0,68,0.00,,SKC,0.00,608.00,VWS V14.00,2013-04-26 14:56:00,
2013-04-26 10:01:00,52.1,41.5,29.93,North,5,2.0,6.0,67,0.00,,SKC,0.00,628.00,VWS V14.00,2013-04-26 15:01:00,
2013-04-26 10:06:00,52.4,42.2,29.94,NNE,14,1.0,3.0,68,0.00,,SKC,0.00,636.00,VWS V14.00,2013-04-26 15:06:00,
2013-04-26 10:11:00,52.8,42.5,29.94,NNE,14,1.0,3.0,68,0.00,,SKC,0.00,654.00,VWS V14.00,2013-04-26 15:11:00,
2013-04-26 10:16:00,53.3,42.2,29.95,North,355,1.0,5.0,66,0.00,,SKC,0.00,664.00,VWS V14.00,2013-04-26 15:16:00,
2013-04-26 10:21:00,53.8,42.7,29.95,North,355,1.0,5.0,66,0.00,,SKC,0.00,673.00,VWS V14.00,2013-04-26 15:21:00,
2013-04-26 10:26:00,54.4,42.9,29.95,NNE,24,2.0,4.0,65,0.00,,SKC,0.00,686.00,VWS V14.00,2013-04-26 15:26:00,
2013-04-26 10:31:00,54.9,42.6,29.95,NNE,24,3.0,3.0,63,0.00,,SKC,0.00,698.00,VWS V14.00,2013-04-26 15:31:00,
2013-04-26 10:36:00,55.3,42.9,29.95,NE,37,2.0,3.0,63,0.00,,SKC,0.00,708.00,VWS V14.00,2013-04-26 15:36:00,
2013-04-26 10:41:00,55.8,43.0,29.95,NNE,13,3.0,3.0,62,0.00,,SKC,0.00,721.00,VWS V14.00,2013-04-26 15:41:00,
2013-04-26 10:46:00,56.3,43.0,29.95,North,9,2.0,5.0,61,0.00,,SKC,0.00,731.00,VWS V14.00,2013-04-26 15:46:00,
2013-04-26 10:51:00,56.6,42.9,29.95,NE,36,3.0,4.0,60,0.00,,SKC,0.00,744.00,VWS V14.00,2013-04-26 15:51:00,
2013-04-26 10:56:00,56.8,42.6,29.96,NE,55,1.0,5.0,59,0.00,,SKC,0.00,756.00,VWS V14.00,2013-04-26 15:56:00,
2013-04-26 11:01:00,56.9,43.2,29.96,NNE,19,1.0,5.0,60,0.00,,SKC,0.00,765.00,VWS V14.00,2013-04-26 16:01:00,
2013-04-26 11:06:00,57.1,43.4,29.97,NNE,27,2.0,4.0,60,0.00,,SKC,0.00,772.00,VWS V14.00,2013-04-26 16:06:00,
2013-04-26 11:11:00,57.3,43.1,29.97,North,11,3.0,4.0,59,0.00,,SKC,0.00,784.00,VWS V14.00,2013-04-26 16:11:00,
2013-04-26 11:16:00,57.6,43.4,29.97,NE,38,1.0,3.0,59,0.00,,SKC,0.00,795.00,VWS V14.00,2013-04-26 16:16:00,
2013-04-26 11:21:00,57.9,43.7,29.97,NE,38,1.0,3.0,59,0.00,,SKC,0.00,803.00,VWS V14.00,2013-04-26 16:21:00,
2013-04-26 11:26:00,58.4,43.7,29.97,NNE,29,2.0,3.0,58,0.00,,SKC,0.00,812.00,VWS V14.00,2013-04-26 16:26:00,
2013-04-26 11:31:00,58.9,43.7,29.97,NNE,16,2.0,5.0,57,0.00,,SKC,0.00,817.00,VWS V14.00,2013-04-26 16:31:00,
2013-04-26 11:36:00,59.4,44.2,29.98,NNE,16,0.0,3.0,57,0.00,,SKC,0.00,828.00,VWS V14.00,2013-04-26 16:36:00,
2013-04-26 11:41:00,59.9,44.2,29.98,NNE,14,2.0,4.0,56,0.00,,SKC,0.00,835.00,VWS V14.00,2013-04-26 16:41:00,
2013-04-26 11:47:00,60.5,44.3,29.98,North,9,2.0,4.0,55,0.00,,SKC,0.00,840.00,VWS V14.00,2013-04-26 16:47:00,
2013-04-26 11:52:00,61.1,44.8,29.98,NE,51,2.0,3.0,55,0.00,,SKC,0.00,849.00,VWS V14.00,2013-04-26 16:52:00,
2013-04-26 11:57:00,61.6,44.8,29.98,NNE,26,1.0,4.0,54,0.00,,SKC,0.00,856.00,VWS V14.00,2013-04-26 16:57:00,
2013-04-26 12:02:00,62.2,45.4,29.98,NE,51,1.0,4.0,54,0.00,,SKC,0.00,863.00,VWS V14.00,2013-04-26 17:02:00,
2013-04-26 12:07:00,62.9,45.0,29.98,NE,45,3.0,3.0,52,0.00,,SKC,0.00,870.00,VWS V14.00,2013-04-26 17:07:00,
2013-04-26 12:12:00,63.2,44.8,29.98,NE,36,2.0,4.0,51,0.00,,SKC,0.00,875.00,VWS V14.00,2013-04-26 17:12:00,
2013-04-26 12:17:00,63.5,44.5,29.98,NNE,13,3.0,6.0,50,0.00,,SKC,0.00,881.00,VWS V14.00,2013-04-26 17:17:00,
2013-04-26 12:22:00,63.8,44.8,29.98,NE,41,2.0,4.0,50,0.00,,SKC,0.00,888.00,VWS V14.00,2013-04-26 17:22:00,
2013-04-26 12:27:00,64.3,44.2,29.98,NE,50,0.0,4.0,48,0.00,,SKC,0.00,891.00,VWS V14.00,2013-04-26 17:27:00,
2013-04-26 12:32:00,64.9,45.8,29.98,NNE,24,1.0,4.0,50,0.00,,SKC,0.00,895.00,VWS V14.00,2013-04-26 17:32:00,
2013-04-26 12:37:00,65.4,44.7,29.98,NNE,26,6.0,6.0,47,0.00,,SKC,0.00,902.00,VWS V14.00,2013-04-26 17:37:00,
2013-04-26 12:42:00,65.8,44.5,29.98,NE,43,4.0,4.0,46,0.00,,SKC,0.00,904.00,VWS V14.00,2013-04-26 17:42:00,
2013-04-26 12:47:00,66.0,44.7,29.98,NE,49,2.0,5.0,46,0.00,,SKC,0.00,907.00,VWS V14.00,2013-04-26 17:47:00,
2013-04-26 12:52:00,66.2,44.2,29.98,NNE,17,1.0,3.0,45,0.00,,SKC,0.00,909.00,VWS V14.00,2013-04-26 17:52:00,
2013-04-26 12:57:00,66.2,43.7,29.98,NNE,28,0.0,4.0,44,0.00,,SKC,0.00,914.00,VWS V14.00,2013-04-26 17:57:00,
2013-04-26 13:02:00,66.5,43.9,29.97,ENE,57,1.0,3.0,44,0.00,,SKC,0.00,919.00,VWS V14.00,2013-04-26 18:02:00,
2013-04-26 13:07:00,66.8,44.2,29.98,NNE,26,4.0,4.0,44,0.00,,SKC,0.00,918.00,VWS V14.00,2013-04-26 18:07:00,
2013-04-26 13:12:00,66.6,44.0,29.98,NNW,347,2.0,4.0,44,0.00,,SKC,0.00,919.00,VWS V14.00,2013-04-26 18:12:00,
2013-04-26 13:17:00,66.7,42.9,29.98,NE,45,1.0,3.0,42,0.00,,SKC,0.00,918.00,VWS V14.00,2013-04-26 18:17:00,
2013-04-26 13:22:00,66.8,42.4,29.98,NE,45,0.0,4.0,41,0.00,,SKC,0.00,923.00,VWS V14.00,2013-04-26 18:22:00,
2013-04-26 13:27:00,67.0,41.9,29.98,North,360,2.0,4.0,40,0.00,,SKC,0.00,919.00,VWS V14.00,2013-04-26 18:27:00,
2013-04-26 13:32:00,67.0,42.5,29.98,NW,308,0.0,5.0,41,0.00,,SKC,0.00,925.00,VWS V14.00,2013-04-26 18:32:00,
2013-04-26 13:37:00,67.2,43.4,29.98,NNW,339,3.0,6.0,42,0.00,,SKC,0.00,921.00,VWS V14.00,2013-04-26 18:37:00,
2013-04-26 13:42:00,67.3,42.2,29.98,NNW,335,3.0,4.0,40,0.00,,SKC,0.00,921.00,VWS V14.00,2013-04-26 18:42:00,
2013-04-26 13:47:00,67.6,42.4,29.98,NNE,15,4.0,4.0,40,0.00,,SKC,0.00,921.00,VWS V14.00,2013-04-26 18:47:00,
2013-04-26 13:52:00,67.7,43.8,29.98,North,355,6.0,10.0,42,0.00,,SKC,0.00,928.00,VWS V14.00,2013-04-26 18:52:00,
2013-04-26 13:57:00,67.9,45.8,29.98,NW,314,4.0,7.0,45,0.00,,SKC,0.00,977.00,VWS V14.00,2013-04-26 18:57:00,
2013-04-26 14:02:00,68.3,45.6,29.98,NNW,348,2.0,7.0,44,0.00,,SKC,0.00,979.00,VWS V14.00,2013-04-26 19:02:00,
2013-04-26 14:07:00,68.5,45.1,29.98,NNE,24,5.0,7.0,43,0.00,,SKC,0.00,937.00,VWS V14.00,2013-04-26 19:07:00,
2013-04-26 14:12:00,68.3,46.2,29.98,North,9,1.0,4.0,45,0.00,,SKC,0.00,905.00,VWS V14.00,2013-04-26 19:12:00,
2013-04-26 14:17:00,68.3,46.7,29.98,NE,51,5.0,11.0,46,0.00,,SKC,0.00,898.00,VWS V14.00,2013-04-26 19:17:00,
2013-04-26 14:22:00,67.9,46.4,29.98,North,5,2.0,6.0,46,0.00,,SKC,0.00,891.00,VWS V14.00,2013-04-26 19:22:00,
2013-04-26 14:27:00,67.7,46.8,29.99,NNE,28,3.0,11.0,47,0.00,,SKC,0.00,886.00,VWS V14.00,2013-04-26 19:27:00,
2013-04-26 14:32:00,67.5,45.4,29.99,NNE,20,4.0,6.0,45,0.00,,SKC,0.00,874.00,VWS V14.00,2013-04-26 19:32:00,
2013-04-26 14:37:00,67.2,46.3,29.99,NE,39,4.0,5.0,47,0.00,,SKC,0.00,874.00,VWS V14.00,2013-04-26 19:37:00,
2013-04-26 14:42:00,67.2,47.4,29.99,North,5,3.0,6.0,49,0.00,,SKC,0.00,865.00,VWS V14.00,2013-04-26 19:42:00,
2013-04-26 14:47:00,67.0,46.7,29.99,North,5,3.0,6.0,48,0.00,,SKC,0.00,860.00,VWS V14.00,2013-04-26 19:47:00,
2013-04-26 14:52:00,66.8,46.5,29.99,NNE,21,4.0,7.0,48,0.00,,SKC,0.00,849.00,VWS V14.00,2013-04-26 19:52:00,
2013-04-26 14:57:00,66.6,46.3,29.99,NE,37,4.0,7.0,48,0.00,,SKC,0.00,844.00,VWS V14.00,2013-04-26 19:57:00,
2013-04-26 15:02:00,66.6,46.3,29.99,NE,36,4.0,7.0,48,0.00,,SKC,0.00,837.00,VWS V14.00,2013-04-26 20:02:00,
2013-04-26 15:07:00,66.6,45.2,29.99,NNE,26,5.0,9.0,46,0.00,,SKC,0.00,826.00,VWS V14.00,2013-04-26 20:07:00,
2013-04-26 15:13:00,65.9,43.4,30.00,NNE,17,3.0,6.0,44,0.00,,SKC,0.00,823.00,VWS V14.00,2013-04-26 20:13:00,
2013-04-26 15:18:00,65.4,44.7,30.00,NNE,15,4.0,7.0,47,0.00,,SKC,0.00,814.00,VWS V14.00,2013-04-26 20:18:00,
2013-04-26 15:23:00,65.1,41.5,30.00,NE,38,5.0,6.0,42,0.00,,SKC,0.00,807.00,VWS V14.00,2013-04-26 20:23:00,
2013-04-26 15:28:00,64.7,42.9,30.00,NNE,12,4.0,5.0,45,0.00,,SKC,0.00,798.00,VWS V14.00,2013-04-26 20:28:00,
2013-04-26 15:33:00,64.5,43.3,30.00,NE,42,4.0,6.0,46,0.00,,SKC,0.00,786.00,VWS V14.00,2013-04-26 20:33:00,
2013-04-26 15:38:00,64.7,42.9,30.00,NNE,16,3.0,4.0,45,0.00,,SKC,0.00,777.00,VWS V14.00,2013-04-26 20:38:00,
2013-04-26 15:43:00,64.9,44.2,30.00,North,5,3.0,5.0,47,0.00,,SKC,0.00,766.00,VWS V14.00,2013-04-26 20:43:00,
2013-04-26 15:48:00,65.3,42.8,30.00,North,5,3.0,4.0,44,0.00,,SKC,0.00,759.00,VWS V14.00,2013-04-26 20:48:00,
2013-04-26 15:53:00,65.7,42.6,30.00,NE,35,3.0,4.0,43,0.00,,SKC,0.00,749.00,VWS V14.00,2013-04-26 20:53:00,
2013-04-26 15:58:00,65.8,41.5,30.00,North,355,2.0,5.0,41,0.00,,SKC,0.00,738.00,VWS V14.00,2013-04-26 20:58:00,
2013-04-26 16:03:00,65.8,39.5,30.00,NNW,347,4.0,5.0,38,0.00,,SKC,0.00,728.00,VWS V14.00,2013-04-26 21:03:00,
2013-04-26 16:08:00,65.9,41.6,30.00,NNE,21,3.0,5.0,41,0.00,,SKC,0.00,715.00,VWS V14.00,2013-04-26 21:08:00,
2013-04-26 16:13:00,66.0,40.4,30.00,NNE,28,1.0,4.0,39,0.00,,SKC,0.00,703.00,VWS V14.00,2013-04-26 21:13:00,
2013-04-26 16:18:00,66.3,40.0,30.00,NNE,30,1.0,4.0,38,0.00,,SKC,0.00,693.00,VWS V14.00,2013-04-26 21:18:00,
2013-04-26 16:23:00,66.2,38.5,30.00,NE,38,2.0,5.0,36,0.00,,SKC,0.00,680.00,VWS V14.00,2013-04-26 21:23:00,
2013-04-26 16:28:00,66.1,39.8,30.00,NNE,25,2.0,5.0,38,0.00,,SKC,0.00,668.00,VWS V14.00,2013-04-26 21:28:00,
2013-04-26 16:33:00,66.3,37.8,30.00,NE,38,2.0,5.0,35,0.00,,SKC,0.00,652.00,VWS V14.00,2013-04-26 21:33:00,
2013-04-26 16:38:00,66.3,39.3,30.00,NNW,340,3.0,5.0,37,0.00,,SKC,0.00,636.00,VWS V14.00,2013-04-26 21:38:00,
2013-04-26 16:43:00,66.4,40.0,30.00,North,5,5.0,5.0,38,0.00,,SKC,0.00,624.00,VWS V14.00,2013-04-26 21:43:00,
2013-04-26 16:48:00,66.3,40.6,30.00,NNW,343,2.0,5.0,39,0.00,,SKC,0.00,610.00,VWS V14.00,2013-04-26 21:48:00,
2013-04-26 16:53:00,66.4,40.0,30.01,NNE,22,4.0,5.0,38,0.00,,SKC,0.00,594.00,VWS V14.00,2013-04-26 21:53:00,
2013-04-26 16:58:00,66.4,39.4,30.01,NNE,14,1.0,4.0,37,0.00,,SKC,0.00,580.00,VWS V14.00,2013-04-26 21:58:00,
2013-04-26 17:03:00,66.5,40.1,30.01,NW,319,2.0,5.0,38,0.00,,SKC,0.00,566.00,VWS V14.00,2013-04-26 22:03:00,
2013-04-26 17:08:00,66.6,38.8,30.01,NNE,19,2.0,6.0,36,0.00,,SKC,0.00,555.00,VWS V14.00,2013-04-26 22:08:00,
2013-04-26 17:13:00,66.5,39.5,30.01,NNE,26,2.0,3.0,37,0.00,,SKC,0.00,540.00,VWS V14.00,2013-04-26 22:13:00,
2013-04-26 17:18:00,66.5,38.0,30.01,NNE,26,1.0,3.0,35,0.00,,SKC,0.00,526.00,VWS V14.00,2013-04-26 22:18:00,
2013-04-26 17:23:00,66.3,37.8,30.01,NNE,26,1.0,3.0,35,0.00,,SKC,0.00,512.00,VWS V14.00,2013-04-26 22:23:00,
2013-04-26 17:28:00,65.9,38.2,30.01,East,91,5.0,5.0,36,0.00,,SKC,0.00,499.00,VWS V14.00,2013-04-26 22:28:00,
2013-04-26 17:33:00,65.4,38.5,30.01,ENE,57,1.0,5.0,37,0.00,,SKC,0.00,489.00,VWS V14.00,2013-04-26 22:33:00,
2013-04-26 17:38:00,65.2,37.6,30.02,NE,48,2.0,4.0,36,0.00,,SKC,0.00,468.00,VWS V14.00,2013-04-26 22:38:00,
2013-04-26 17:43:00,64.7,37.8,30.02,NNE,17,3.0,6.0,37,0.00,,SKC,0.00,454.00,VWS V14.00,2013-04-26 22:43:00,
2013-04-26 17:48:00,64.2,36.0,30.02,NNE,15,5.0,6.0,35,0.00,,SKC,0.00,438.00,VWS V14.00,2013-04-26 22:48:00,
2013-04-26 17:53:00,63.9,36.5,30.02,NE,44,2.0,5.0,36,0.00,,SKC,0.00,420.00,VWS V14.00,2013-04-26 22:53:00,
2013-04-26 17:58:00,63.6,36.9,30.02,NE,39,3.0,4.0,37,0.00,,SKC,0.00,403.00,VWS V14.00,2013-04-26 22:58:00,
2013-04-26 18:03:00,63.5,36.1,30.02,NNE,28,0.0,7.0,36,0.00,,SKC,0.00,388.00,VWS V14.00,2013-04-26 23:03:00,
2013-04-26 18:08:00,63.6,35.5,30.02,ENE,59,2.0,5.0,35,0.00,,SKC,0.00,371.00,VWS V14.00,2013-04-26 23:08:00,
2013-04-26 18:13:00,63.9,35.7,30.03,North,355,0.0,6.0,35,0.00,,SKC,0.00,355.00,VWS V14.00,2013-04-26 23:13:00,
2013-04-26 18:18:00,64.1,35.2,30.03,North,355,3.0,4.0,34,0.00,,SKC,0.00,339.00,VWS V14.00,2013-04-26 23:18:00,
2013-04-26 18:23:00,64.1,35.9,30.03,NE,51,1.0,3.0,35,0.00,,SKC,0.00,322.00,VWS V14.00,2013-04-26 23:23:00,
2013-04-26 18:28:00,64.1,36.6,30.03,NNW,331,0.0,5.0,36,0.00,,SKC,0.00,306.00,VWS V14.00,2013-04-26 23:28:00,
2013-04-26 18:33:00,64.1,36.6,30.03,NNW,334,1.0,1.0,36,0.00,,SKC,0.00,288.00,VWS V14.00,2013-04-26 23:33:00,
2013-04-26 18:39:00,64.0,36.5,30.03,North,360,3.0,4.0,36,0.00,,SKC,0.00,274.00,VWS V14.00,2013-04-26 23:39:00,
2013-04-26 18:44:00,63.8,37.7,30.03,NNE,26,2.0,3.0,38,0.00,,SKC,0.00,257.00,VWS V14.00,2013-04-26 23:44:00,
2013-04-26 18:49:00,63.6,36.2,30.03,NNE,26,3.0,3.0,36,0.00,,SKC,0.00,239.00,VWS V14.00,2013-04-26 23:49:00,
2013-04-26 18:54:00,63.4,38.0,30.03,NNE,26,1.0,1.0,39,0.00,,SKC,0.00,221.00,VWS V14.00,2013-04-26 23:54:00,
2013-04-26 19:06:00,62.9,36.9,30.03,NNE,26,0.0,1.0,38,0.00,,SKC,0.00,172.00,VWS V14.00,2013-04-27 00:06:00,
2013-04-26 19:11:00,62.7,38.0,30.03,NNE,26,0.0,1.0,40,0.00,,SKC,0.00,153.00,VWS V14.00,2013-04-27 00:11:00,
2013-04-26 19:16:00,62.5,36.6,30.03,NNE,26,0.0,0.0,38,0.00,,SKC,0.00,132.00,VWS V14.00,2013-04-27 00:16:00,
2013-04-26 19:21:00,62.3,35.7,30.04,NNE,26,0.0,1.0,37,0.00,,SKC,0.00,114.00,VWS V14.00,2013-04-27 00:21:00,
2013-04-26 19:26:00,62.2,37.6,30.04,NNE,26,0.0,1.0,40,0.00,,SKC,0.00,97.00,VWS V14.00,2013-04-27 00:26:00,
2013-04-26 19:31:00,62.1,36.9,30.04,NNE,26,0.0,0.0,39,0.00,,SKC,0.00,62.00,VWS V14.00,2013-04-27 00:31:00,
2013-04-26 19:36:00,61.9,36.7,30.04,NNE,26,0.0,0.0,39,0.00,,SKC,0.00,49.00,VWS V14.00,2013-04-27 00:36:00,
2013-04-26 19:42:00,61.7,35.9,30.04,NNE,26,0.0,0.0,38,0.00,,SKC,0.00,33.00,VWS V14.00,2013-04-27 00:42:00,
2013-04-26 19:47:00,61.4,35.6,30.04,NNE,26,0.0,0.0,38,0.00,,SKC,0.00,32.00,VWS V14.00,2013-04-27 00:47:00,
2013-04-26 19:52:00,61.2,35.4,30.04,NNE,26,0.0,0.0,38,0.00,,SKC,0.00,28.00,VWS V14.00,2013-04-27 00:52:00,
2013-04-26 19:57:00,60.9,35.8,30.04,NNE,26,0.0,0.0,39,0.00,,SKC,0.00,21.00,VWS V14.00,2013-04-27 00:57:00,
2013-04-26 20:02:00,60.7,35.6,30.05,NNE,26,0.0,0.0,39,0.00,,SKC,0.00,18.00,VWS V14.00,2013-04-27 01:02:00,
2013-04-26 20:07:00,60.3,35.3,30.05,NNE,26,0.0,0.0,39,0.00,,SKC,0.00,12.00,VWS V14.00,2013-04-27 01:07:00,
2013-04-26 20:12:00,60.0,35.0,30.05,NNE,26,0.0,0.0,39,0.00,,SKC,0.00,11.00,VWS V14.00,2013-04-27 01:12:00,
2013-04-26 20:17:00,59.6,34.6,30.05,NNE,26,0.0,0.0,39,0.00,,SKC,0.00,7.00,VWS V14.00,2013-04-27 01:17:00,
2013-04-26 20:22:00,59.2,34.9,30.05,NNE,26,0.0,0.0,40,0.00,,SKC,0.00,0.00,VWS V14.00,2013-04-27 01:22:00,
2013-04-26 20:27:00,58.8,35.2,30.05,NNE,26,0.0,0.0,41,0.00,,SKC,0.00,0.00,VWS V14.00,2013-04-27 01:27:00,
2013-04-26 20:32:00,58.4,34.8,30.05,NNE,26,0.0,0.0,41,0.00,,SKC,0.00,0.00,VWS V14.00,2013-04-27 01:32:00,
2013-04-26 20:37:00,57.9,34.4,30.05,NNE,26,0.0,0.0,41,0.00,,SKC,0.00,0.00,VWS V14.00,2013-04-27 01:37:00,
2013-04-26 20:42:00,57.5,34.6,30.05,NNE,26,0.0,2.0,42,0.00,,SKC,0.00,0.00,VWS V14.00,2013-04-27 01:42:00,
2013-04-26 20:47:00,57.0,34.8,30.05,NNE,26,0.0,0.0,43,0.00,,SKC,0.00,0.00,VWS V14.00,2013-04-27 01:47:00,
2013-04-26 20:52:00,56.4,34.2,30.06,NNE,26,0.0,0.0,43,0.00,,SKC,0.00,0.00,VWS V14.00,2013-04-27 01:52:00,
2013-04-26 20:57:00,55.9,34.3,30.06,NNE,26,0.0,0.0,44,0.00,,SKC,0.00,0.00,VWS V14.00,2013-04-27 01:57:00,
2013-04-26 21:02:00,55.5,34.0,30.06,NNE,26,0.0,0.0,44,0.00,,SKC,0.00,0.00,VWS V14.00,2013-04-27 02:02:00,
2013-04-26 21:07:00,55.1,34.2,30.06,NNE,26,0.0,0.0,45,0.00,,SKC,0.00,0.00,VWS V14.00,2013-04-27 02:07:00,
2013-04-26 21:12:00,54.8,34.4,30.06,NNE,26,0.0,0.0,46,0.00,,SKC,0.00,0.00,VWS V14.00,2013-04-27 02:12:00,
2013-04-26 21:17:00,54.5,34.2,30.06,NNE,26,0.0,0.0,46,0.00,,SKC,0.00,0.00,VWS V14.00,2013-04-27 02:17:00,
2013-04-26 21:22:00,54.3,34.0,30.06,NNE,26,0.0,0.0,46,0.00,,SKC,0.00,0.00,VWS V14.00,2013-04-27 02:22:00,
2013-04-26 21:27:00,54.0,33.7,30.06,NNE,26,0.0,0.0,46,0.00,,SKC,0.00,0.00,VWS V14.00,2013-04-27 02:27:00,
2013-04-26 21:32:00,53.8,33.5,30.07,NNE,26,0.0,0.0,46,0.00,,SKC,0.00,0.00,VWS V14.00,2013-04-27 02:32:00,
2013-04-26 21:37:00,53.5,33.8,30.07,NNE,26,0.0,0.0,47,0.00,,SKC,0.00,0.00,VWS V14.00,2013-04-27 02:37:00,
2013-04-26 21:42:00,53.3,33.6,30.07,NNE,26,0.0,0.0,47,0.00,,SKC,0.00,0.00,VWS V14.00,2013-04-27 02:42:00,
2013-04-26 21:47:00,53.1,34.0,30.07,NNE,26,0.0,0.0,48,0.00,,SKC,0.00,0.00,VWS V14.00,2013-04-27 02:47:00,
2013-04-26 21:52:00,52.7,33.6,30.07,NNE,26,1.0,2.0,48,0.00,,SKC,0.00,0.00,VWS V14.00,2013-04-27 02:52:00,
2013-04-26 21:57:00,52.2,34.1,30.07,NNE,26,0.0,0.0,50,0.00,,SKC,0.00,0.00,VWS V14.00,2013-04-27 02:57:00,
2013-04-26 22:02:00,51.7,33.7,30.07,NNE,26,0.0,1.0,50,0.00,,SKC,0.00,0.00,VWS V14.00,2013-04-27 03:02:00,
2013-04-26 22:07:00,51.3,33.3,30.07,NNE,26,0.0,0.0,50,0.00,,SKC,0.00,0.00,VWS V14.00,2013-04-27 03:07:00,
2013-04-26 22:12:00,51.1,33.1,30.08,NNE,26,0.0,0.0,50,0.00,,SKC,0.00,0.00,VWS V14.00,2013-04-27 03:12:00,
2013-04-26 22:17:00,50.8,33.3,30.07,NNE,26,0.0,0.0,51,0.00,,SKC,0.00,0.00,VWS V14.00,2013-04-27 03:17:00,
2013-04-26 22:22:00,50.3,33.4,30.07,NNE,26,0.0,0.0,52,0.00,,SKC,0.00,0.00,VWS V14.00,2013-04-27 03:22:00,
2013-04-26 22:27:00,50.0,33.6,30.08,NNE,26,0.0,0.0,53,0.00,,SKC,0.00,0.00,VWS V14.00,2013-04-27 03:27:00,
2013-04-26 22:32:00,49.7,33.3,30.08,NNE,26,0.0,0.0,53,0.00,,SKC,0.00,0.00,VWS V14.00,2013-04-27 03:32:00,
2013-04-26 22:37:00,49.5,33.6,30.08,NNE,26,0.0,0.0,54,0.00,,SKC,0.00,0.00,VWS V14.00,2013-04-27 03:37:00,
2013-04-26 22:42:00,49.4,33.5,30.08,NNE,26,0.0,0.0,54,0.00,,SKC,0.00,0.00,VWS V14.00,2013-04-27 03:42:00,
2013-04-26 22:47:00,49.2,33.7,30.08,NNE,26,0.0,0.0,55,0.00,,SKC,0.00,0.00,VWS V14.00,2013-04-27 03:47:00,
2013-04-26 22:52:00,49.1,33.7,30.08,NNE,26,0.0,0.0,55,0.00,,SKC,0.00,0.00,VWS V14.00,2013-04-27 03:52:00,
2013-04-26 22:57:00,49.0,33.5,30.08,NNE,26,0.0,0.0,55,0.00,,SKC,0.00,0.00,VWS V14.00,2013-04-27 03:57:00,
2013-04-26 23:01:00,48.8,33.4,30.08,NNE,26,0.0,0.0,55,0.00,,SKC,0.00,0.00,VWS V14.00,2013-04-27 04:01:00,
2013-04-26 23:03:00,48.8,33.4,30.08,NNE,26,0.0,0.0,55,0.00,,SKC,0.00,0.00,VWS V14.00,2013-04-27 04:03:00,
2013-04-26 23:06:00,48.7,33.3,30.08,NNE,26,0.0,0.0,55,0.00,,SKC,0.00,0.00,VWS V14.00,2013-04-27 04:06:00,
2013-04-26 23:07:00,48.7,32.8,30.08,NNE,26,0.0,0.0,54,0.00,,SKC,0.00,0.00,VWS V14.00,2013-04-27 04:07:00,
2013-04-26 23:13:00,48.5,33.1,30.08,NNE,26,0.0,0.0,55,0.00,,SKC,0.00,0.00,VWS V14.00,2013-04-27 04:13:00,
2013-04-26 23:18:00,48.3,32.4,30.08,NNE,26,0.0,0.0,54,0.00,,SKC,0.00,0.00,VWS V14.00,2013-04-27 04:18:00,
2013-04-26 23:23:00,48.0,32.6,30.08,NNE,26,0.0,0.0,55,0.00,,SKC,0.00,0.00,VWS V14.00,2013-04-27 04:23:00,
2013-04-26 23:28:00,47.8,32.9,30.08,NNE,26,0.0,0.0,56,0.00,,SKC,0.00,0.00,VWS V14.00,2013-04-27 04:28:00,
2013-04-26 23:33:00,47.6,33.1,30.08,NNE,26,0.0,2.0,57,0.00,,SKC,0.00,0.00,VWS V14.00,2013-04-27 04:33:00,
2013-04-26 23:38:00,47.4,33.0,30.08,NNE,26,0.0,0.0,57,0.00,,SKC,0.00,0.00,VWS V14.00,2013-04-27 04:38:00,
2013-04-26 23:43:00,47.1,32.7,30.08,NNE,26,0.0,0.0,57,0.00,,SKC,0.00,0.00,VWS V14.00,2013-04-27 04:43:00,
2013-04-26 23:48:00,47.0,33.0,30.08,NNE,26,0.0,0.0,58,0.00,,SKC,0.00,0.00,VWS V14.00,2013-04-27 04:48:00,
2013-04-26 23:53:00,46.8,32.4,30.07,NNE,26,0.0,0.0,57,0.00,,SKC,0.00,0.00,VWS V14.00,2013-04-27 04:53:00,
2013-04-26 23:58:00,46.6,32.6,30.08,NNE,26,0.0,0.0,58,0.00,,SKC,0.00,0.00,VWS V14.00,2013-04-27 04:58:00,